Location: Branche des Alpilles
(43.6087°N, 4.6976°E)
Time: 09:36:16
(UTC+00:00)

N. Korean satellite - Pass Details

Date: 06 October 2021
Orbit: 450 x 495 km, 97.3° (Epoch: 15 October)

Event Time Altitude Azimuth Distance (km) Brightness Sun altitude
Rises 04:37:47 0° 18° (NNE) 2,565 10.6 -12.9°
Reaches altitude 10° 04:39:55 10° 25° (NNE) 1,686 9.7 -12.5°
Maximum altitude 04:43:25 44° 99° (E) 691 7.9 -11.9°
Drops below altitude 10° 04:46:54 10° 172° (S) 1,686 9.4 -11.3°
Sets 04:49:02 0° 179° (S) 2,566 10.2 -10.9°
